Weather History for Ft Pierce, FL

Change the Weather History Date:

Thursday, July 25, 2013

  Actual Average Record
Temperature  
Mean Temperature 82 °F -  
Max Temperature 90 °F 91 °F 99 °F (1983)
Min Temperature 75 °F 73 °F 67 °F (1991)
Cooling Degree Days 16    
Growing Degree Days 32 (Base 50)    
Moisture  
Dew Point 73 °F    
Average Humidity 80    
Maximum Humidity 91    
Minimum Humidity 57    
Precipitation  
Precipitation 0.17 in - - ()
Sea Level Pressure  
Sea Level Pressure 29.97 in    
Wind  
Wind Speed 7 mph (WSW)    
Max Wind Speed 15 mph    
Max Gust Speed 23 mph    
Visibility 8 miles    
Events Rain    
Averages and records for this station are not official NWS values.
T = Trace of Precipitation, MM = Missing Value Source: NWS Daily Summary

Daily Weather History Graph

Daily Weather History Graph

Search for Another Location

Airport:

Trip Planner

Search our weather history database for the weather conditions in past years. The results will help you decide how hot, cold, wet, or windy it might be!

Date:

Astronomy

Jul. 25, 2013 Rise Set
Actual Time 6:41 AM EDT 8:14 PM EDT
Civil Twilight 6:15 AM EDT 8:39 PM EDT
Nautical Twilight 5:45 AM EDT 9:10 PM EDT
Astronomical Twilight 5:13 AM EDT 9:42 PM EDT
Moon 10:20 PM EDT (7/25) 9:45 AM EDT (7/25)
Length of Visible Light 14h 24m
Length of Day
13h 33m
Waning Gibbous, 88% of the Moon is Illuminated
Jul 25
Waning Gibbous
Jul 29
Last Quarter
Aug 6
New
Aug 14
First Quarter
Aug 20
Full

Hourly Weather History & Observations

Time (EDT) Temp. Heat Index Dew Point Humidity Pressure Visibility Wind Dir Wind Speed Gust Speed Precip Events Conditions
12:53 AM 77.0 °F - 72.0 °F 84% 29.95 in 9.0 mi WSW 4.6 mph - N/A   Clear
1:53 AM 75.9 °F - 72.0 °F 87% 29.94 in 8.0 mi SW 3.5 mph - N/A   Clear
2:53 AM 75.9 °F - 72.0 °F 87% 29.92 in 8.0 mi SW 5.8 mph - N/A   Clear
3:53 AM 75.9 °F - 72.0 °F 87% 29.91 in 8.0 mi SW 5.8 mph - N/A   Clear
4:53 AM 75.9 °F - 73.0 °F 91% 29.91 in 8.0 mi SW 5.8 mph - N/A   Clear
5:53 AM 77.0 °F - 73.0 °F 88% 29.92 in 8.0 mi SW 6.9 mph - 0.01 in   Clear
6:53 AM 77.0 °F - 73.0 °F 88% 29.92 in 6.0 mi SW 5.8 mph - N/A   Clear
7:53 AM 78.1 °F - 73.9 °F 87% 29.95 in 7.0 mi WSW 6.9 mph - N/A   Mostly Cloudy
8:53 AM 81.0 °F 86.2 °F 73.9 °F 79% 29.96 in 8.0 mi WSW 10.4 mph - N/A   Partly Cloudy
9:53 AM 82.9 °F 89.4 °F 73.9 °F 74% 29.98 in 8.0 mi West 11.5 mph - N/A   Mostly Cloudy
10:10 AM 82.4 °F 88.2 °F 73.4 °F 74% 29.99 in 8.0 mi WSW 11.5 mph - N/A   Overcast
10:24 AM 77.0 °F - 73.4 °F 89% 30.00 in 1.0 mi WNW 15.0 mph 23.0 mph 0.15 in Rain Heavy Rain
10:30 AM 77.0 °F - 73.4 °F 89% 30.00 in 6.0 mi WNW 8.1 mph 19.6 mph 0.16 in Rain Light Rain
10:53 AM 77.0 °F - 73.9 °F 90% 30.01 in 6.0 mi West 6.9 mph - 0.16 in   Overcast
11:08 AM 77.0 °F - 73.4 °F 89% 30.01 in 9.0 mi West 5.8 mph - 0.00 in Rain Light Rain
11:20 AM 77.0 °F - 73.4 °F 89% 30.02 in 10.0 mi WSW 10.4 mph - 0.00 in Rain Light Rain
11:30 AM 78.8 °F - 73.4 °F 83% 30.02 in 10.0 mi WSW 6.9 mph - 0.00 in   Scattered Clouds
11:53 AM 79.0 °F - 73.9 °F 84% 30.01 in 10.0 mi SW 6.9 mph - 0.00 in   Clear
12:53 PM 81.0 °F 85.2 °F 72.0 °F 74% 30.01 in 10.0 mi West 11.5 mph - 0.00 in   Clear
1:53 PM 81.0 °F 85.2 °F 72.0 °F 74% 29.99 in 10.0 mi West 5.8 mph - N/A   Overcast
2:53 PM 82.9 °F 89.4 °F 73.9 °F 74% 29.99 in 10.0 mi West 6.9 mph - N/A   Overcast
3:53 PM 86.0 °F 95.1 °F 75.0 °F 70% 29.97 in 9.0 mi West 10.4 mph - N/A   Clear
4:53 PM 88.0 °F 96.5 °F 73.9 °F 63% 29.97 in 9.0 mi West 8.1 mph 17.3 mph N/A   Partly Cloudy
5:53 PM 88.0 °F 93.8 °F 71.1 °F 57% 29.97 in 9.0 mi West 13.8 mph 21.9 mph N/A   Clear
6:53 PM 84.9 °F 92.1 °F 73.9 °F 69% 29.96 in 8.0 mi WSW 4.6 mph - N/A   Clear
7:53 PM 82.9 °F 88.8 °F 73.0 °F 72% 29.98 in 8.0 mi West 5.8 mph - N/A   Partly Cloudy
8:53 PM 81.0 °F 84.9 °F 71.1 °F 72% 29.98 in 9.0 mi SW 4.6 mph - N/A   Clear
9:53 PM 78.1 °F - 71.1 °F 79% 29.99 in 9.0 mi Calm Calm - N/A   Clear
10:53 PM 75.9 °F - 71.1 °F 85% 30.01 in 9.0 mi Calm Calm - N/A   Clear
11:53 PM 77.0 °F - 71.1 °F 82% 30.01 in 9.0 mi Calm Calm - N/A   Clear